Location: Pensacola
(30.4142°N, 87.2155°W)
Time: 17:19:13
(UTC-05:00)

Hubble Space Telescope - Visible Passes

Search period start: 22 September 2017 00:00
Search period end: 02 October 2017 00:00
Orbit: 538 x 541 km, 28.5° (Epoch: 22 September)

Date Brightness Start Highest point End Pass type
(mag) Time Alt. Az. Time Alt. Az. Time Alt. Az.
27 Sep 3.2 06:14:12 10° SSW 06:16:51 17° SSE 06:19:31 10° ESE visible
28 Sep 2.9 06:03:30 10° SSW 06:06:37 21° SSE 06:09:45 10° ESE visible
29 Sep 2.5 05:52:57 10° SW 05:56:24 25° SSE 05:59:51 10° ESE visible
30 Sep 2.2 05:43:00 13° SW 05:46:11 31° SSE 05:49:52 10° E visible
01 Oct 1.8 05:33:38 20° SW 05:36:00 37° SSE 05:39:50 10° E visible
